Home   Weather   Biel   Past weeks

Flag for Switzerland Past Weather in Biel, Switzerland — Yesterday and Last 2 Weeks

Now
22 °F

Cold.


Feels Like: 22 °F
Forecast: 10 / 33 °F
Wind: 1 mph from South

Location: Grenchen

Current Time: Jan 20, 2017 at 9:06:00 am

Latest Report: Jan 20, 2017 at 8:00 am


Visibility: N/A

Pressure: 30.55 "Hg

Humidity: 85%

Dew Point: 18 °F

Location of BielLocation

Past Weather in Biel — Graph

°F

Biel Temperature Yesterday

Maximum temperature yesterday: 25 °F (at 12:00 am)
Minimum temperature yesterday: 23 °F (at 11:00 pm)
Average temperature yesterday: 24 °F

High & Low Weather Summary for the Past Weeks

 TemperatureHumidityPressure
High44 °F (Jan 13, 1:00 am)100% (Jan 11, 12:00 am)30.73 "Hg (Jan 11, 12:00 am)
Low10 °F (Jan 7, 5:00 am)56% (Jan 5, 7:00 pm)29.59 "Hg (Jan 13, 1:00 am)
Average27 °F85%30.31 "Hg
* Reported Jan 5 7:00 am — Jan 20 7:00 am, Biel, Weather by CustomWeather, © 2017

Note: Actual official high and low records may vary slightly from our data, if they occured in-between our weather recording intervals... More about our weather records

Advertising

Biel Weather History for the Previous 24 Hours

Scroll right to see more
 ConditionsComfort  
Time TempWeatherWind HumidityBarometerVisibility
7:00 am
Fri, Jan 20
22 °FCold.1 mph85%30.55 "HgN/A
6:00 am22 °FCold.3 mph85%30.55 "HgN/A
5:00 am23 °FCold.1 mph84%30.54 "HgN/A
4:00 am23 °FCold.2 mph85%30.53 "HgN/A
3:00 am23 °FCold.2 mph84%30.54 "HgN/A
2:00 am23 °FCold.3 mph85%30.54 "HgN/A
1:00 am23 °FCold.6 mph85%30.55 "HgN/A
12:00 am23 °FCold.8 mph86%30.55 "HgN/A
11:00 pm
Thu, Jan 19
23 °FCold.10 mph85%30.55 "HgN/A
10:00 pm23 °FCold.10 mph84%30.55 "HgN/A
9:00 pm24 °FCold.10 mph85%30.55 "HgN/A
8:00 pm24 °FCold.13 mph84%30.55 "HgN/A
7:00 pm24 °FCold.13 mph84%30.54 "HgN/A
6:00 pm24 °FCold.12 mph84%30.53 "HgN/A
5:00 pm24 °FCold.9 mph81%30.53 "HgN/A
4:00 pm24 °FCold.7 mph80%30.53 "HgN/A
3:00 pm25 °FCold.8 mph80%30.53 "HgN/A
2:00 pm25 °FCold.8 mph80%30.52 "HgN/A
1:00 pm24 °FCold.7 mph81%30.54 "HgN/A
12:00 pm24 °FCold.10 mph80%30.55 "HgN/A
11:00 am24 °FCold.14 mph80%30.55 "HgN/A
10:00 am24 °FCold.10 mph79%30.54 "HgN/A
9:00 am24 °FCold.10 mph81%30.53 "HgN/A
Weather by CustomWeather, © 2017

See weather overviewHow to use our weather pages